Tracking 23645 objects as of 21-Sep-2021
HD Live streaming from Space Station
objects crossing your sky now

STARLINK-1402

Track STARLINK-1402 now!
10-day predictions
STARLINK-1402 is classified as:


NORAD ID: 45685
Int'l Code: 2020-035AE
Perigee: 553.0 km
Apogee: 555.7 km
Inclination: 53.1 °
Period: 95.6 minutes
Semi major axis: 6925 km
RCS: Unknown
Launch date: June 4, 2020
Source: United States (US)
Launch site: AIR FORCE EASTERN TEST RANGE (AFETR)
aabbcc
Your satellite tracking list
Your tracking list is empty




NASA's NSSDC Master Catalog

Two Line Element Set (TLE):
1 45685U 20035AE  21264.46652689 -.00000772  00000-0 -32908-4 0  9993
2 45685  53.0547 174.9847 0001943  69.9419 290.1779 15.06394298 73168
Source of the keplerian elements: AFSPC